Monango, North Dakota
Current Conditions -  °F | °C
As of 9:35 AM on Monday 22 Dec 2014 (Local Time) from KGWR Reporting Station
Overcast Overcast  
Wind Chill: 28°   Ceiling: 100
Heat Index: 36°   Visibility: 0mi
Dew Point: 36°   Wind: 10mph
Humidity: 100%   Direction: 120°ESE
Pressure: 29.46"   Gusts: NA
Location:  46.0577°N, 98.4986°W
Report Text: KGWR 221535Z AUTO 12009KT M1/4SM OVC001 02/02 A2946 RMK A01 P000
Loading
Personal Weather Stations






























Interactive Weather Map New forecast layout! Learn more

10-Day Weather Forecast

Advertisements
Track Severe Weather on mobile